TimeCDT,TemperatureF,Dew PointF,Humidity,Sea Level PressureIn,VisibilityMPH,Wind Direction,Wind SpeedMPH,Gust SpeedMPH,PrecipitationIn,Events,Conditions,WindDirDegrees,DateUTC
12:55 AM,63.9,60.6,89,30.15,10.0,NE,3.5,-,N/A,,Clear,50,2012-10-04 05:55:00
1:55 AM,62.4,60.3,93,30.16,10.0,North,3.5,-,N/A,,Clear,360,2012-10-04 06:55:00
2:55 AM,62.2,60.3,93,30.16,10.0,North,3.5,-,N/A,,Clear,360,2012-10-04 07:55:00
3:48 AM,60.8,59.0,94,30.17,6.0,NNE,3.5,-,N/A,,Partly Cloudy,30,2012-10-04 08:48:00
3:55 AM,60.6,59.7,97,30.17,7.0,NNE,3.5,-,N/A,,Scattered Clouds,20,2012-10-04 08:55:00
3:56 AM,60.8,60.8,100,30.17,8.0,North,4.6,-,N/A,,Scattered Clouds,10,2012-10-04 08:56:00
3:57 AM,60.8,60.8,100,30.17,8.0,North,4.6,-,N/A,,Mostly Cloudy,10,2012-10-04 08:57:00
4:05 AM,62.6,60.8,94,30.17,2.5,NNE,4.6,-,N/A,,Mostly Cloudy,30,2012-10-04 09:05:00
4:06 AM,62.6,60.8,94,30.17,1.8,NNE,4.6,-,N/A,,Mostly Cloudy,30,2012-10-04 09:06:00
4:07 AM,62.6,60.8,94,30.17,1.2,NNE,3.5,-,N/A,,Mostly Cloudy,30,2012-10-04 09:07:00
4:08 AM,62.6,60.8,94,30.17,1.0,NE,3.5,-,N/A,,Mist,40,2012-10-04 09:08:00
4:09 AM,62.6,60.8,94,30.17,0.8,NE,3.5,-,N/A,,Mist,40,2012-10-04 09:09:00
4:10 AM,62.6,60.8,94,30.17,0.5,NE,3.5,-,N/A,Fog,Fog,40,2012-10-04 09:10:00
4:15 AM,62.6,60.8,94,30.18,0.2,NNE,3.5,-,N/A,Fog,Fog,30,2012-10-04 09:15:00
4:17 AM,62.6,60.8,94,30.18,0.2,Calm,Calm,-,N/A,Fog,Fog,0,2012-10-04 09:17:00
4:22 AM,62.6,60.8,94,30.18,0.5,Calm,Calm,-,N/A,Fog,Fog,0,2012-10-04 09:22:00
4:55 AM,62.4,62.1,99,30.19,0.5,NNE,3.5,-,N/A,Fog,Fog,30,2012-10-04 09:55:00
5:11 AM,62.6,62.6,100,30.19,0.5,NNE,3.5,-,N/A,Fog,Fog,30,2012-10-04 10:11:00
5:15 AM,62.6,62.6,100,30.19,0.5,NNE,3.5,-,N/A,Fog,Fog,20,2012-10-04 10:15:00
5:26 AM,62.6,62.6,100,30.19,0.2,NNE,3.5,-,N/A,Fog,Fog,30,2012-10-04 10:26:00
5:43 AM,62.6,62.6,100,30.20,0.5,NE,3.5,-,N/A,Fog,Fog,50,2012-10-04 10:43:00
5:55 AM,63.7,63.3,99,30.20,0.5,NNE,3.5,-,N/A,Fog,Fog,30,2012-10-04 10:55:00
6:20 AM,64.4,64.4,100,30.21,0.5,NE,3.5,-,N/A,Fog,Fog,40,2012-10-04 11:20:00
6:36 AM,64.4,64.4,100,30.22,0.2,NE,3.5,-,N/A,Fog,Fog,40,2012-10-04 11:36:00
6:55 AM,64.0,63.7,99,30.22,0.2,North,4.6,-,N/A,Fog,Fog,10,2012-10-04 11:55:00
7:27 AM,64.4,64.4,100,30.22,0.2,NNE,6.9,-,N/A,Fog,Fog,20,2012-10-04 12:27:00
7:41 AM,64.4,64.4,100,30.22,0.2,NNE,4.6,-,N/A,Fog,Fog,20,2012-10-04 12:41:00
7:55 AM,64.2,63.9,99,30.23,0.2,NNE,4.6,-,N/A,Fog,Fog,20,2012-10-04 12:55:00
8:31 AM,66.2,64.4,94,30.23,0.5,NNE,5.8,-,N/A,Fog,Fog,20,2012-10-04 13:31:00
8:36 AM,66.2,64.4,94,30.23,0.8,NNE,6.9,-,N/A,,Mist,30,2012-10-04 13:36:00
8:42 AM,66.2,64.4,94,30.23,1.0,NNE,4.6,-,N/A,,Mist,30,2012-10-04 13:42:00
8:47 AM,66.2,66.2,100,30.24,1.2,NNE,5.8,-,N/A,,Overcast,30,2012-10-04 13:47:00
8:55 AM,66.0,65.7,99,30.24,0.8,NNE,4.6,-,N/A,,Mist,30,2012-10-04 13:55:00
9:17 AM,66.2,66.2,100,30.22,2.0,NNE,5.8,-,N/A,,Overcast,20,2012-10-04 14:17:00
9:38 AM,68.0,68.0,100,30.22,4.0,NNE,5.8,-,N/A,,Overcast,20,2012-10-04 14:38:00
9:52 AM,68.0,68.0,100,30.22,5.0,NNW,9.2,-,N/A,,Overcast,340,2012-10-04 14:52:00
9:55 AM,68.9,68.7,99,30.24,5.0,North,8.1,-,N/A,,Mostly Cloudy,350,2012-10-04 14:55:00
10:04 AM,69.8,69.8,100,30.22,6.0,North,8.1,-,N/A,,Mostly Cloudy,360,2012-10-04 15:04:00
10:21 AM,71.6,71.6,100,30.22,10.0,North,6.9,-,N/A,,Mostly Cloudy,350,2012-10-04 15:21:00
10:55 AM,75.2,66.6,74,30.23,10.0,North,6.9,-,N/A,,Mostly Cloudy,360,2012-10-04 15:55:00
11:55 AM,79.7,64.8,60,30.22,10.0,NE,6.9,-,N/A,,Mostly Cloudy,40,2012-10-04 16:55:00
12:55 PM,81.1,64.8,57,30.20,10.0,NE,6.9,-,N/A,,Mostly Cloudy,50,2012-10-04 17:55:00
1:55 PM,82.8,64.6,54,30.18,10.0,ENE,10.4,-,N/A,,Mostly Cloudy,70,2012-10-04 18:55:00
2:55 PM,83.7,64.2,52,30.17,10.0,NNE,8.1,-,N/A,,Mostly Cloudy,30,2012-10-04 19:55:00
3:55 PM,83.5,64.2,52,30.16,10.0,NE,6.9,-,N/A,,Mostly Cloudy,50,2012-10-04 20:55:00
4:55 PM,81.3,66.0,60,30.15,10.0,North,5.8,-,N/A,,Mostly Cloudy,10,2012-10-04 21:55:00
5:55 PM,77.9,66.7,68,30.14,10.0,North,4.6,-,N/A,,Mostly Cloudy,360,2012-10-04 22:55:00
6:55 PM,73.0,67.5,83,30.15,10.0,North,3.5,-,N/A,,Mostly Cloudy,350,2012-10-04 23:55:00
7:55 PM,69.8,66.2,88,30.17,10.0,Calm,Calm,-,N/A,,Mostly Cloudy,0,2012-10-05 00:55:00
9:55 PM,67.3,64.9,92,30.19,10.0,ENE,3.5,-,N/A,,Mostly Cloudy,60,2012-10-05 02:55:00
10:55 PM,66.2,64.6,94,30.19,10.0,Calm,Calm,-,N/A,,Mostly Cloudy,0,2012-10-05 03:55:00
11:55 PM,65.5,63.7,94,30.17,10.0,Calm,Calm,-,N/A,,Mostly Cloudy,0,2012-10-05 04:55:00